Terug naar catalogus

WGS 10

USA 291

ActiefMilitairGEO
NORAD 44071·PAYLOAD·🇺🇸 United States

Gelanceerd Mar 16, 2019 vanaf Cape Canaveral Space Force Station

Loading…

TLE

VersSource: Space-Track

Epoch: Sep 14, 2026, 14:05 UTC

1 44071U 19014A   26257.58706106  .00000039  00000-0  00000-0 0  9998
2 44071   0.0093 179.4180 0000171 207.7971 237.9934  1.00272283 27519

Volg WGS 10 in realtime met AllMySat

Download on the App Store